OKEAN-0
1 25860U 99039A 11075.96094297 .00000427 00000-0 72798-4 0 02770
2 25860 097.8731 045.0030 0000833 046.6936 313.4341 14.73728496627070
NOAA-16
1 26536U 00055A 11075.92722976 .00000031 00000-0 41672-4 0 02283
2 26536 099.1505 104.5580 0009762 293.3829 066.6311 14.12601453540331
NOAA-17
1 27453U 02032A 11075.72494363 .00000275 00000-0 13688-3 0 02222
2 27453 098.3921 119.6331 0012580 062.8775 297.3692 14.24247030453490
NOAA-18
1 28654U 05018A 11075.73350433 -.00000085 00000-0 -21900-4 0 07046
2 28654 098.9861 026.7009 0014579 008.9851 351.1564 14.11446160299888
NOAA-19
1 33591U 09005A 11075.71027057 -.00000052 00000-0 -47998-5 0 08976
2 33591 098.8193 017.4551 0013277 236.5972 123.3927 14.11139258108346
HUBBLE
1 20580U 90037B 11076.11330575 .00001442 00000-0 96912-4 0 7275
2 20580 028.4716 257.8493 0003299 222.1407 137.8767 15.01216185945809
ISS
1 25544U 98067A 11076.98360876 .00029015 00000-0 21149-3 0 215
2 25544 051.6460 268.7443 0006148 073.9775 088.8527 15.73024963706545
CO-58
1 28895U 05043F 11076.64574452 .00000235 00000-0 58084-4 0 8264
2 28895 097.9811 316.5062 0018841 145.3556 214.8877 14.60030317286887
FALCON
1 30776U 07006E 11075.73354645 .00002137 00000-0 15353-3 0 430
2 30776 035.4327 188.9868 0001274 337.6454 022.4208 15.04235127221118
MAST
1 31126U 07012K 11076.83669542 .00000206 00000-0 56460-4 0 1097
2 31126 097.9056 109.1892 0095702 095.1901 266.0235 14.53690329207813
CAPE1
1 31130U 07012P 11076.59943428 .00000249 00000-0 67303-4 0 1290
2 31130 097.9109 105.8734 0103798 105.2990 255.9708 14.52312354207349
COMPASS
1 32787U 08021E 11075.66517399 .00000869 00000-0 11540-3 0 09355
2 32787 097.8568 141.1766 0016631 116.0311 244.2614 14.82203261155854
AAUSAT2
1 32788U 08021F 11076.65254524 .00000590 00000-0 80155-4 0 9253
2 32788 097.8579 142.3426 0016497 113.9757 246.2993 14.82372843156017
DO-64
1 32789U 08021G 11076.82242580 .00001928 00000-0 24487-3 0 9422
2 32789 097.8662 143.3509 0016722 112.8892 247.4070 14.82707076156045
CO-66
1 32791U 08021J 11075.59605798 .00000641 00000-0 87382-4 0 09281
2 32791 097.8577 141.0765 0016909 115.1586 245.1390 14.81933122155798
RS-30
1 32953U 08025A 11076.79249928 .00000010 00000-0 00000 0 0 5606
2 32953 082.4997 219.5291 0018435 223.4775 136.4856 12.43010959127730
TACSAT-3
1 35001U 09028A 11076.87353316 .00014681 00000-0 29737-3 0 5367
2 35001 040.4546 006.0469 0024308 251.2641 108.5269 15.45720155102938
PHARMSAT
1 35002U 09028B 11075.92562869 .00013321 00000-0 26934-3 0 05027
2 35002 040.4737 009.2531 0026232 250.2748 109.5233 15.45778538102818
HAWKSAT1
1 35003U 09028C 11075.84735648 .00040262 00000-0 59047-3 0 05515
2 35003 040.4600 351.7163 0025468 273.1266 086.6632 15.54351611103002
CP6
1 35004U 09028D 11075.88526919 .00053339 00000-0 70096-3 0 05526
2 35004 040.4610 346.6004 0025570 278.9737 080.7879 15.57206385103054
AEROCUB3
1 35005U 09028E 11006.09222617 .14049365 73043-5 82692-3 0 6103
2 35005 040.4461 021.7975 0025578 084.1677 280.7191 16.39196088 92544
METEOR-M
1 35865U 09049A 11076.73893655 .00000176 00000-0 10000-3 0 1956
2 35865 098.7178 133.0084 0001950 314.5788 045.5188 14.21835242 77590
RS-38
1 35869U 09049E 11076.75002460 .00000177 00000-0 10000-3 0 2039
2 35869 098.7156 133.0588 0004107 303.5164 056.5601 14.22002745 77601
